This is the latest recevied weather packets stored in our database for station/object EA7RX-3. If no packets are shown the sender has not sent any weather packets the latest 10 day(s).
| Time | Temp. | Humidity | Pressure | Rain* | Wind** | Luminosity | Snow |
|---|---|---|---|---|---|---|---|
| 1777730301 | 21.11° C | 66% | 1011.2 hPa | - | - | - | - |
| 1777729701 | 20.56° C | 69% | 1011.3 hPa | - | - | - | - |
| 1777729101 | 20.56° C | 76% | 1011.4 hPa | - | - | - | - |
| 1777728501 | 19.44° C | 92% | 1011.9 hPa | - | - | - | - |
| 1777727902 | 20.56° C | 78% | 1011.5 hPa | - | - | - | - |
| 1777727301 | 21.11° C | 74% | 1011.5 hPa | - | - | - | - |
| 1777726701 | 21.11° C | 87% | 1011.4 hPa | - | - | - | - |
| 1777726101 | 19.44° C | 98% | 1011.9 hPa | - | - | - | - |
| 1777725501 | 18.89° C | 10% | - | - | - | - | - |
| 1777724901 | 18.89° C | 99% | 1011.9 hPa | - | - | - | - |
| 1777724301 | 19.44° C | 89% | 1011.9 hPa | - | - | - | - |
| 1777723701 | 19.44° C | 95% | 1012.1 hPa | - | - | - | - |
| 1777723101 | 19.44° C | 10% | - | - | - | - | - |
| 1777722501 | 20° C | 95% | 1012.1 hPa | - | - | - | - |
| 1777721901 | 20.56° C | 79% | 1012.2 hPa | - | - | - | - |
| 1777721301 | 20° C | 79% | 1012.3 hPa | - | - | - | - |
| 1777720701 | 20.56° C | 66% | 1012.1 hPa | - | - | - | - |
| 1777720101 | 20° C | 69% | 1012.3 hPa | - | - | - | - |
| 1777719501 | 20.56° C | 67% | 1012.3 hPa | - | - | - | - |
| 1777718901 | 21.11° C | 66% | 1012.1 hPa | - | - | - | - |
| 1777718301 | 21.11° C | 63% | 1012.2 hPa | - | - | - | - |
| 1777717701 | 21.11° C | 69% | 1012.3 hPa | - | - | - | - |
| 1777717101 | 20° C | 74% | 1012.6 hPa | - | - | - | - |
| 1777716501 | 20° C | 75% | 1012.9 hPa | - | - | - | - |
| 1777715901 | 18.89° C | 79% | 1013.2 hPa | - | - | - | - |
* Rain since midnight (hover to see other rain measurements)
** Current wind speed in m/s (hover to see current wind gust speed)